Previsão horária em Ábidos

Hoje, 18 Abril, Domingo

Tempo Temperatura Precipitação Vento Pressão Humidade
00:00 +25°C° 1.4 mm 1 m/s 757 mmHg 95%
01:00 +25°C° 1.4 mm 1 m/s 757 mmHg 96%
02:00 +25°C° 0 mm 1 m/s 756 mmHg 97%
03:00 +25°C° 1.7 mm 1 m/s 756 mmHg 97%
04:00 +25°C° 1.7 mm 1 m/s 757 mmHg 97%
05:00 +25°C° 1.7 mm 1 m/s 757 mmHg 97%
06:00 +25°C° 7.2 mm 1 m/s 757 mmHg 97%
07:00 +25°C° 7.2 mm 1 m/s 758 mmHg 98%
08:00 +25°C° 7.2 mm 1 m/s 758 mmHg 98%
09:00 +25°C° 4.3 mm 1 m/s 759 mmHg 98%
10:00 +25°C° 4.3 mm 1 m/s 759 mmHg 98%
11:00 +23°C° 4.3 mm 0 m/s 759 mmHg 97%
12:00 +23°C° 0.8 mm 0 m/s 758 mmHg 97%
13:00 +23°C° 0.8 mm 0 m/s 757 mmHg 97%
14:00 +23°C° 0.8 mm 0 m/s 757 mmHg 97%
15:00 +23°C° 0.2 mm 0 m/s 757 mmHg 96%
16:00 +25°C° 0.2 mm 1 m/s 757 mmHg 96%
17:00 +25°C° 0.2 mm 1 m/s 756 mmHg 96%
18:00 +25°C° 0.2 mm 1 m/s 757 mmHg 96%
19:00 +25°C° 0.2 mm 1 m/s 757 mmHg 97%
20:00 +25°C° 0.2 mm 1 m/s 758 mmHg 97%
21:00 +25°C° 0 mm 1 m/s 758 mmHg 97%
22:00 +25°C° 0 mm 1 m/s 758 mmHg 97%
23:00 +25°C° 0 mm 1 m/s 758 mmHg 97%

Amanhã, 19 Abril, Segunda-feira

Tempo Temperatura Precipitação Vento Pressão Humidade
00:00 +24°C° 0.1 mm 1 m/s 758 mmHg 97%
01:00 +24°C° 0.1 mm 1 m/s 757 mmHg 97%
02:00 +22°C° 0.1 mm 0 m/s 757 mmHg 97%
03:00 +24°C° 0 mm 1 m/s 757 mmHg 97%
04:00 +24°C° 0 mm 1 m/s 757 mmHg 97%
05:00 +24°C° 0 mm 1 m/s 757 mmHg 96%
06:00 +25°C° 0 mm 1 m/s 758 mmHg 94%
07:00 +23°C° 0 mm 0 m/s 758 mmHg 92%
08:00 +24°C° 0 mm 0 m/s 759 mmHg 90%
09:00 +27°C° 0 mm 1 m/s 759 mmHg 83%
10:00 +28°C° 0 mm 1 m/s 759 mmHg 76%
11:00 +29°C° 0 mm 1 m/s 759 mmHg 70%
12:00 +30°C° 0.1 mm 1 m/s 758 mmHg 68%
13:00 +30°C° 0.1 mm 1 m/s 757 mmHg 67%
14:00 +30°C° 0.1 mm 1 m/s 756 mmHg 65%
15:00 +30°C° 0.1 mm 1 m/s 756 mmHg 70%
16:00 +29°C° 0.1 mm 1 m/s 756 mmHg 74%
17:00 +29°C° 0.1 mm 1 m/s 756 mmHg 79%
18:00 +28°C° 0.1 mm 1 m/s 756 mmHg 81%
19:00 +25°C° 0.1 mm 0 m/s 757 mmHg 84%
20:00 +24°C° 0.1 mm 0 m/s 758 mmHg 86%
21:00 +24°C° 0.1 mm 0 m/s 758 mmHg 87%
22:00 +23°C° 0.1 mm 0 m/s 758 mmHg 88%
23:00 +23°C° 0.1 mm 0 m/s 758 mmHg 90%

Depois de amanhã, 20 Abril, Terça-feira

Tempo Temperatura Precipitação Vento Pressão Humidade
00:00 +23°C° 0 mm 0 m/s 758 mmHg 91%
01:00 +23°C° 0 mm 0 m/s 757 mmHg 92%
02:00 +23°C° 0 mm 0 m/s 756 mmHg 93%
03:00 +23°C° 0.4 mm 0 m/s 757 mmHg 94%
04:00 +23°C° 0.4 mm 0 m/s 757 mmHg 94%
05:00 +22°C° 0.4 mm 0 m/s 757 mmHg 95%
06:00 +23°C° 0.2 mm 0 m/s 758 mmHg 94%
07:00 +23°C° 0.2 mm 0 m/s 758 mmHg 93%
08:00 +24°C° 0.2 mm 0 m/s 759 mmHg 92%
09:00 +24°C° 0.7 mm 0 m/s 759 mmHg 90%
10:00 +25°C° 0.7 mm 0 m/s 759 mmHg 89%
11:00 +26°C° 0.7 mm 0 m/s 759 mmHg 87%
12:00 +28°C° 1.6 mm 1 m/s 758 mmHg 87%
13:00 +28°C° 1.6 mm 1 m/s 757 mmHg 87%
14:00 +28°C° 1.6 mm 1 m/s 757 mmHg 87%
15:00 +28°C° 1.1 mm 1 m/s 756 mmHg 88%
16:00 +28°C° 1.1 mm 1 m/s 756 mmHg 90%
17:00 +27°C° 1.1 mm 1 m/s 756 mmHg 91%
18:00 +27°C° 0 mm 1 m/s 756 mmHg 92%
19:00 +26°C° 0 mm 1 m/s 757 mmHg 93%
20:00 +26°C° 0 mm 1 m/s 758 mmHg 94%
21:00 +25°C° 0.1 mm 1 m/s 758 mmHg 94%
22:00 +25°C° 0.1 mm 1 m/s 758 mmHg 95%
23:00 +25°C° 0.1 mm 1 m/s 758 mmHg 95%

21 Abril, Quarta-feira

Tempo Temperatura Precipitação Vento Pressão Humidade
00:00 +25°C° 0.2 mm 1 m/s 758 mmHg 95%
01:00 +25°C° 0.2 mm 1 m/s 757 mmHg 96%
02:00 +25°C° 0.2 mm 1 m/s 757 mmHg 96%
03:00 +25°C° 0.7 mm 1 m/s 757 mmHg 96%
04:00 +25°C° 0.7 mm 1 m/s 757 mmHg 96%
05:00 +25°C° 0.7 mm 1 m/s 757 mmHg 96%
06:00 +25°C° 0.5 mm 1 m/s 758 mmHg 96%
07:00 +25°C° 0.5 mm 1 m/s 759 mmHg 95%
08:00 +24°C° 0.5 mm 0 m/s 759 mmHg 95%
09:00 +26°C° 0.5 mm 1 m/s 759 mmHg 90%
10:00 +27°C° 0.5 mm 1 m/s 759 mmHg 86%
11:00 +28°C° 0.5 mm 1 m/s 759 mmHg 82%
12:00 +29°C° 0.3 mm 1 m/s 758 mmHg 80%
13:00 +29°C° 0.3 mm 1 m/s 757 mmHg 78%
14:00 +27°C° 0.3 mm 0 m/s 756 mmHg 76%
15:00 +27°C° 0.3 mm 0 m/s 756 mmHg 80%
16:00 +26°C° 0.3 mm 0 m/s 756 mmHg 83%
17:00 +26°C° 0.3 mm 0 m/s 755 mmHg 87%
18:00 +25°C° 0.5 mm 0 m/s 756 mmHg 89%
19:00 +24°C° 0.5 mm 0 m/s 757 mmHg 91%
20:00 +24°C° 0.5 mm 0 m/s 757 mmHg 94%
21:00 +26°C° 1.4 mm 1 m/s 758 mmHg 95%
22:00 +25°C° 1.4 mm 1 m/s 758 mmHg 96%
23:00 +25°C° 1.4 mm 1 m/s 758 mmHg 96%

22 Abril, Quinta-feira

Tempo Temperatura Precipitação Vento Pressão Humidade
00:00 +25°C° 1 mm 1 m/s 758 mmHg 96%
01:00 +25°C° 1 mm 1 m/s 757 mmHg 96%
02:00 +25°C° 1 mm 1 m/s 757 mmHg 96%
03:00 +25°C° 0.1 mm 1 m/s 757 mmHg 96%
04:00 +25°C° 0.1 mm 1 m/s 757 mmHg 96%
05:00 +25°C° 0.1 mm 1 m/s 757 mmHg 96%
06:00 +25°C° 0.2 mm 1 m/s 758 mmHg 94%
07:00 +26°C° 0.2 mm 1 m/s 758 mmHg 93%
08:00 +25°C° 0.2 mm 0 m/s 759 mmHg 91%
09:00 +27°C° 1.3 mm 1 m/s 759 mmHg 89%
10:00 +28°C° 1.3 mm 1 m/s 759 mmHg 88%
11:00 +28°C° 1.3 mm 1 m/s 759 mmHg 86%
12:00 +29°C° 0.7 mm 1 m/s 758 mmHg 82%
13:00 +30°C° 0.7 mm 1 m/s 757 mmHg 77%
14:00 +31°C° 0.7 mm 1 m/s 756 mmHg 73%
15:00 +30°C° 0.6 mm 1 m/s 756 mmHg 79%
16:00 +29°C° 0.6 mm 1 m/s 755 mmHg 85%
17:00 +28°C° 0.6 mm 1 m/s 755 mmHg 90%
18:00 +27°C° 0 mm 1 m/s 756 mmHg 92%
19:00 +27°C° 0 mm 1 m/s 756 mmHg 93%
20:00 +26°C° 0 mm 1 m/s 757 mmHg 94%
21:00 +26°C° 0.2 mm 1 m/s 757 mmHg 95%
22:00 +26°C° 0.2 mm 1 m/s 757 mmHg 95%
23:00 +25°C° 0.2 mm 1 m/s 758 mmHg 96%

23 Abril, Sexta-feira

Tempo Temperatura Precipitação Vento Pressão Humidade
00:00 +25°C° 1.4 mm 1 m/s 757 mmHg 96%
01:00 +25°C° 1.4 mm 2 m/s 757 mmHg 97%
02:00 +25°C° 1.4 mm 2 m/s 757 mmHg 97%
03:00 +25°C° 1.2 mm 2 m/s 757 mmHg 97%
04:00 +25°C° 1.2 mm 1 m/s 757 mmHg 97%
05:00 +25°C° 1.2 mm 1 m/s 758 mmHg 97%
06:00 +25°C° 0.2 mm 1 m/s 758 mmHg 97%
07:00 +25°C° 0.2 mm 1 m/s 758 mmHg 96%
08:00 +25°C° 0.2 mm 1 m/s 759 mmHg 96%
09:00 +25°C° 0.3 mm 1 m/s 759 mmHg 96%
10:00 +25°C° 0.3 mm 1 m/s 759 mmHg 95%
11:00 +26°C° 0.3 mm 1 m/s 759 mmHg 94%
12:00 +26°C° 0 mm 1 m/s 758 mmHg 92%
13:00 +26°C° 0 mm 1 m/s 757 mmHg 89%
14:00 +27°C° 0 mm 1 m/s 756 mmHg 87%
15:00 +27°C° 0 mm 1 m/s 756 mmHg 87%
16:00 +27°C° 0 mm 1 m/s 756 mmHg 87%
17:00 +27°C° 0 mm 1 m/s 755 mmHg 87%
18:00 +26°C° 0 mm 1 m/s 756 mmHg 90%
19:00 +25°C° 0 mm 1 m/s 756 mmHg 92%
20:00 +25°C° 0 mm 1 m/s 757 mmHg 95%
21:00 +25°C° 0 mm 1 m/s 757 mmHg 95%
22:00 +25°C° 0 mm 1 m/s 757 mmHg 95%
23:00 +25°C° 0 mm 1 m/s 758 mmHg 95%
Mostrar mais